RH
69 68 68 68 70 70 71 68 68 67 67 66 72 72 77 80 81 81 78 75 73 70 74 76 77 82 77 67 61 41 51 62 69 73 76 79 82 73 74 69 55 56 48 44 53 64 78
67 72 72 71 70 72 70 69 72 70 67 69 72 76 78 82 83 83 80 76 73 72 73 75 77 80 76 72 47 47 43 60 72 75 75 76 77 76 79 70 59 51 45 43 42 58 70
70 71 70 70 72 72 72 73 71 71 70 72 74 77 79 81 84 83 79 75 73 73 72 71 76 71 78 60 51 42 40 61 67 72 72 66 62 66 71 68 54 51 51 48 48 50 66
71 71 72 72 72 71 72 74 74 74 74 76 77 80 82 83 83 82 79 76 77 82 77 72 71 76 68 48 51 39 36 48 63 65 71 66 63 65 72 63 49 55 54 59 45 59 59
71 74 73 74 71 71 74 73 74 75 77 79 81 80 82 84 83 83 81 77 79 79 73 73 74 77 56 45 42 40 41 54 56 62 64 51 58 68 57 61 66 60 68 68 54 58 55
69 73 75 73 73 74 75 74 74 76 79 82 84 86 85 84 84 84 84 78 76 74 58 60 61 65 43 48 44 39 41 46 55 63 63 58 69 69 69 65 78 74 70 62 63 52 57
73 75 73 74 76 77 77 75 74 76 79 84 84 86 83 82 81 83 81 60 56 50 53 62 57 55 47 43 46 46 43 45 55 65 78 68 79 72 66 69 57 58 56 53 46 42 55
72 74 76 78 79 79 79 77 76 76 81 84 85 85 80 77 76 78 78 70 72 71 68 54 57 52 46 48 54 47 42 54 59 72 65 71 81 65 61 64 63 64 58 55 44 40 55
74 75 78 80 80 80 80 79 78 78 82 84 87 84 78 74 75 70 72 75 69 62 75 54 50 47 46 49 55 51 46 54 62 63 69 81 65 55 59 59 50 55 60 54 47 45 59
74 77 80 81 82 81 81 81 78 79 84 85 87 82 76 75 69 80 80 72 68 61 67 39 44 45 44 54 52 44 48 54 57 64 62 67 56 54 56 55 54 57 47 51 48 60 68
72 80 82 82 82 81 82 82 81 82 85 86 84 77 75 70 72 74 72 71 68 48 66 36 41 39 45 51 49 45 49 50 64 62 63 62 62 62 61 57 55 47 49 53 52 59 61
73 80 82 83 83 82 81 82 83 82 88 87 81 74 72 70 80 79 75 76 61 70 58 50 46 47 46 52 52 49 53 52 56 59 61 64 59 64 62 55 54 50 51 55 71 71 79
82 80 82 83 82 81 80 81 84 86 87 85 78 74 70 66 69 78 76 69 76 69 45 44 54 52 56 52 49 56 56 60 65 74 75 60 63 61 58 62 55 55 66 83 74 82 77
82 82 83 83 82 82 78 79 82 85 88 90 77 75 73 70 84 80 73 48 53 50 59 55 56 56 56 48 49 55 58 61 62 64 78 81 67 61 62 66 74 61 60 79 57 76 62
82 83 84 82 82 83 81 78 82 84 90 92 79 89 80 77 76 81 52 72 52 55 56 58 54 51 46 43 46 48 57 58 55 67 70 63 55 61 62 61 55 68 68 60 57 73 63
82 83 84 82 81 83 84 78 81 83 89 89 79 87 81 74 79 72 59 56 56 57 56 57 67 54 59 47 42 42 48 50 54 47 56 54 63 58 61 63 62 55 51 59 75 60 64
82 80 81 83 83 84 84 83 78 80 85 81 93 72 80 76 69 58 56 54 53 52 48 54 60 54 50 51 46 43 42 46 53 52 54 55 60 54 63 67 58 59 58 54 55 59 58
80 77 77 82 84 85 84 83 82 78 84 84 92 47 81 77 61 74 52 54 56 45 52 49 56 52 54 46 42 42 42 45 51 55 52 51 56 70 51 63 61 59 54 47 62 49 54
77 78 76 81 86 87 86 84 83 80 83 92 71 80 82 62 45 46 58 50 48 46 44 42 48 49 44 41 43 39 44 52 54 55 51 47 52 68 47 60 56 64 59 54 52 58 54
78 77 77 82 85 86 87 86 84 82 79 91 72 58 71 77 69 54 60 43 50 51 43 42 40 41 39 39 38 38 36 45 58 54 59 48 48 49 56 43 47 53 48 56 51 78 54
81 78 79 80 81 83 85 88 87 84 81 83 82 53 69 42 64 65 56 51 52 49 49 46 47 42 39 46 40 41 36 34 60 61 59 50 56 61 53 51 52 48 46 49 62 57 52
77 74 73 71 66 67 79 85 87 86 80 88 63 79 75 66 62 72 63 51 54 49 46 50 49 47 46 45 36 36 44 52 47 64 60 56 57 55 51 42 47 46 45 47 52 53 55
76 74 71 69 69 70 67 80 85 85 74 90 95 90 62 47 69 65 53 46 45 53 44 41 44 50 58 48 42 39 42 44 47 41 57 57 64 56 59 47 53 57 55 48 45 50 47
75 76 76 70 73 74 72 69 81 82 79 94 97 94 76 56 59 59 52 51 47 53 48 46 49 54 52 67 66 67 72 68 70 69 50 56 56 55 64 66 73 48 54 52 46 42 44
80 77 73 73 73 74 74 71 70 80 77 89 92 94 90 77 64 57 50 50 46 46 57 52 52 51 60 70 65 58 48 57 79 75 75 48 56 68 70 80 57 52 60 56 56 50 55
83 82 81 80 80 78 77 77 72 69 82 87 94 95 96 95 68 65 52 43 43 44 48 57 72 70 68 73 73 64 45 42 50 86 74 66 62 65 82 83 73 47 63 58 60 62 69
87 86 87 87 89 88 86 84 81 79 82 83 82 92 96 99 91 80 65 51 49 56 55 68 81 79 75 85 85 86 76 57 58 68 90 85 84 79 81 87 70 50 54 57 72 52 62
90 88 87 86 86 87 89 92 93 92 87 86 91 92 91 92 86 79 72 64 58 63 55 58 70 78 86 87 86 83 91 66 66 59 80 74 86 93 88 89 79 52 63 57 50 72 69
85 85 84 83 82 82 82 83 86 86 87 92 98 85 80 88 79 73 66 58 58 54 68 74 64 69 73 85 92 90 88 89 72 67 76 68 50 51 62 60 46 55 52 55 61 56 63
Wind_Speed
5 6 6 7 9 10 10 10 8 7 6 5 5 7 7 9 10 10 12 12 13 12 12 13 13 15 4 3 2 4 12 7 3 2 2 3 4 3 2 3 2 2 3 3 6 1 4
4 6 6 7 9 9 10 9 9 7 6 6 6 6 7 9 10 10 12 12 12 12 12 12 12 12 3 4 4 6 7 5 1 2 2 1 1 2 3 2 1 3 3 6 6 4 1
5 5 6 7 8 10 10 10 10 9 7 6 6 6 7 9 11 11 11 12 11 12 11 11 11 3 2 4 5 8 5 2 2 0 3 1 2 2 1 3 3 3 2 3 2 2 2
4 5 6 6 8 9 10 11 10 9 8 6 6 7 8 9 11 11 11 13 11 11 11 8 11 2 4 4 4 6 6 4 1 2 2 4 2 2 1 4 4 2 4 2 4 2 1
4 6 6 7 7 8 11 11 11 9 8 7 7 7 8 9 11 12 12 14 13 10 10 8 4 3 5 8 4 5 2 3 4 3 3 3 2 1 4 3 4 6 3 2 3 6 2
4 5 6 6 8 9 10 11 11 10 9 7 7 7 7 8 10 11 14 12 7 6 2 2 1 3 5 5 5 5 3 3 2 6 5 4 5 3 4 5 3 2 2 2 2 4 0
4 6 7 7 8 9 10 11 11 10 8 9 8 7 7 6 8 10 8 4 7 5 7 2 5 3 5 8 1 4 3 5 3 4 4 4 6 1 4 1 1 1 0 3 3 3 4
4 5 7 8 9 9 9 10 11 9 9 8 8 7 7 5 7 8 2 6 3 3 7 3 5 5 5 2 4 5 4 5 4 3 5 6 2 2 4 3 3 2 1 3 5 3 4
5 6 7 8 9 10 10 10 11 10 9 8 9 7 7 6 6 4 4 3 2 4 0 7 4 3 5 1 4 5 4 2 3 5 2 2 5 5 2 1 2 1 3 3 4 4 0
4 6 7 8 9 10 11 11 12 11 10 9 8 8 6 9 4 1 2 4 3 1 6 7 5 3 2 1 4 2 2 1 4 4 6 2 4 4 3 2 1 1 1 2 3 3 4
4 5 7 8 9 10 11 11 13 12 10 7 7 6 7 7 3 2 1 3 1 4 7 7 6 2 3 2 3 4 3 4 3 4 4 6 6 6 2 1 1 5 4 2 2 3 2
2 4 6 8 9 10 11 11 12 13 10 7 6 5 4 3 2 1 3 2 4 9 4 7 4 6 6 1 2 4 3 2 1 4 3 6 1 1 2 3 2 4 2 4 4 3 2
1 3 5 7 8 9 10 11 12 13 12 8 7 6 2 1 0 3 2 4 7 8 4 9 4 5 4 4 4 1 4 6 1 6 6 6 2 2 1 4 2 4 6 4 5 4 6
1 3 5 7 8 9 10 11 12 13 13 10 7 6 4 0 1 2 3 6 10 1 4 3 4 6 3 3 2 2 2 4 1 3 2 2 8 3 2 2 1 2 5 5 5 3 5
1 2 5 6 8 10 11 13 12 13 13 11 5 2 2 2 2 3 6 7 5 4 3 5 7 4 5 3 3 3 1 2 1 1 1 1 5 2 2 2 5 1 3 3 5 2 2
2 2 4 6 9 10 12 13 14 14 15 6 2 2 2 3 2 4 6 4 5 4 1 0 1 2 3 6 6 5 1 2 2 1 2 2 5 1 2 0 1 4 2 1 3 2 4
3 1 3 5 8 9 11 13 14 16 15 3 3 3 2 3 3 5 4 6 4 4 3 5 2 3 4 3 1 3 4 2 2 2 1 1 3 6 3 4 4 2 1 1 1 4 3
4 2 3 4 6 8 10 12 14 16 16 5 2 1 2 2 3 1 2 5 2 3 3 2 2 3 3 3 3 2 3 4 3 1 1 1 3 5 10 2 2 2 3 6 4 3 2
5 4 3 4 5 6 8 11 13 14 13 2 1 3 2 3 1 2 3 2 3 4 4 5 4 6 1 3 3 5 3 2 3 2 2 3 2 5 8 5 2 2 4 3 2 3 6
6 5 4 4 3 5 6 9 11 13 12 3 3 3 4 3 0 2 2 3 3 3 3 3 3 1 1 3 5 4 3 1 3 2 3 1 3 6 6 7 3 4 5 5 4 2 5
8 8 6 5 4 4 6 7 9 12 10 2 2 3 2 3 3 3 2 2 3 3 3 4 2 6 7 3 3 5 4 4 2 2 2 2 5 5 8 11 6 9 11 8 9 8 8
9 8 5 5 6 7 5 6 8 12 5 3 2 1 2 2 2 4 3 4 6 4 7 5 5 2 7 7 9 6 4 3 6 2 3 1 4 2 8 6 5 7 10 9 9 6 10
10 9 7 5 5 6 7 4 6 10 5 2 1 2 4 3 1 4 6 7 6 4 6 5 9 4 5 13 9 8 6 5 5 5 5 5 3 1 6 5 8 8 7 5 5 6 6
8 8 8 7 8 8 8 6 2 4 6 2 1 2 3 5 3 6 2 5 6 7 5 1 6 6 6 2 2 3 4 5 5 6 5 4 4 3 5 6 2 7 3 3 7 7 8
7 7 9 10 9 9 8 5 6 4 4 3 1 2 3 4 4 5 7 6 6 5 5 6 7 6 4 3 2 6 5 3 0 1 5 4 3 2 3 2 8 6 2 4 1 5 3
8 8 8 8 9 9 9 9 9 6 7 3 1 2 2 2 7 4 3 5 5 4 4 6 2 2 5 3 3 5 6 5 4 2 3 5 2 3 1 3 5 4 2 2 2 5 2
7 7 5 3 2 3 5 8 8 9 9 4 2 4 3 2 5 3 5 4 3 1 3 3 3 2 2 3 4 5 7 6 6 6 6 3 2 6 4 5 10 8 4 4 1 6 5
14 12 10 8 6 6 5 5 6 7 6 5 4 6 5 4 6 6 5 5 3 4 4 3 3 1 2 3 5 6 6 7 3 6 9 11 10 6 3 4 9 7 4 7 7 3 3
15 13 11 9 9 8 7 7 8 9 9 5 3 4 6 5 6 7 12 23 19 13 1 2 3 2 4 3 2 0 4 2 5 5 1 4 9 7 13 11 4 8 7 5 5 6 6
Wind_Direction
46 32 19 8 2 358 352 348 345 335 332 318 318 309 326 325 328 331 328 334 331 338 341 340 353 340 6 6 316 301 335 344 25 32 27 25 38 2 338 292 312 180 286 324 324 133 202
32 32 13 5 355 357 352 346 339 346 346 341 329 320 326 324 325 327 325 328 329 331 337 340 352 343 19 30 274 313 331 339 19 44 342 24 334 250 265 284 307 303 262 288 308 358 225
22 16 11 0 357 353 356 350 347 346 358 349 342 332 328 322 323 321 322 321 325 323 325 334 343 14 341 245 332 324 344 305 251 177 342 284 328 349 329 302 333 284 268 352 267 282 283
5 2 8 3 355 358 353 353 350 352 352 353 350 342 334 323 318 316 316 310 310 309 309 321 335 45 278 271 311 331 333 343 40 253 248 293 290 258 204 308 3 188 46 133 278 165 289
14 352 356 359 356 358 354 355 348 350 356 349 352 341 332 320 315 315 311 304 296 296 294 304 12 32 323 323 359 305 329 330 302 314 303 287 46 64 16 35 27 15 193 214 302 209 72
350 349 353 354 348 357 357 357 351 347 347 345 341 334 324 317 315 313 307 301 293 324 343 142 184 9 328 301 301 320 309 342 342 328 7 43 40 59 33 56 184 39 63 250 230 227 186
345 345 337 347 353 351 357 355 351 345 342 338 336 330 320 325 322 321 341 27 17 354 33 155 267 260 280 292 320 321 328 343 11 45 22 354 57 184 240 221 169 175 199 331 278 246 149
336 337 340 344 351 346 358 355 350 342 341 334 333 330 321 332 325 327 29 73 128 194 323 295 250 263 253 290 331 323 19 40 38 356 345 11 348 238 216 207 226 258 310 289 285 266 164
321 335 342 345 351 344 355 353 351 344 339 330 334 332 328 335 339 35 70 74 343 126 72 301 260 273 276 28 308 293 22 327 17 4 8 169 272 322 154 333 40 209 183 236 214 348 262
321 342 342 346 352 348 351 354 351 341 340 336 337 336 341 328 45 306 64 334 2 113 58 303 347 314 7 321 307 279 27 50 357 337 347 282 327 15 18 338 59 290 205 321 286 128 214
320 347 339 342 350 352 353 354 355 349 344 334 340 345 1 32 155 69 280 345 21 58 51 296 300 285 326 71 301 341 340 26 322 304 61 268 347 3 356 276 354 238 14 327 319 162 88
329 336 343 344 351 356 358 356 358 357 358 339 337 352 9 16 35 357 337 21 57 46 295 328 307 344 6 340 276 309 9 38 235 322 331 253 316 185 281 300 220 304 331 46 61 70 22
299 340 340 346 351 0 1 358 359 0 1 349 333 349 30 109 221 329 9 45 38 84 359 315 324 353 341 284 306 19 339 328 46 19 356 328 291 312 54 329 349 69 53 352 0 9 219
205 339 345 353 354 358 1 3 358 356 353 346 337 344 332 81 344 38 60 49 62 261 273 329 326 314 298 326 268 310 347 331 31 93 347 29 333 193 191 177 275 270 152 156 208 209 264
246 345 345 354 1 357 1 359 359 354 344 334 333 345 4 299 324 74 75 50 204 209 263 320 324 343 319 343 323 19 239 239 271 206 155 308 278 274 221 188 131 28 220 171 111 3 23
232 336 344 358 3 3 0 3 357 355 345 351 45 33 280 308 31 60 76 210 208 199 195 95 332 29 315 314 1 359 310 219 272 183 154 262 306 255 284 69 268 153 285 32 3 210 259
222 303 349 1 3 5 3 0 1 357 356 98 69 7 268 356 77 51 134 222 230 222 158 170 253 276 265 267 259 295 290 278 181 292 298 241 138 287 353 201 201 139 200 309 139 152 195
217 249 329 357 3 359 6 2 1 4 355 47 93 343 307 44 35 67 161 197 192 210 165 233 219 229 229 297 271 264 273 227 177 200 5 284 168 268 233 284 245 174 262 151 129 240 228
221 237 281 325 343 353 356 0 2 5 21 62 75 260 337 77 195 266 246 244 220 195 214 179 234 208 190 249 283 222 244 171 167 183 228 165 283 325 338 9 13 240 226 223 71 113 214
213 231 246 281 320 340 345 356 354 357 357 87 83 335 322 59 116 171 213 237 244 200 256 197 226 169 219 258 213 283 279 224 169 161 150 160 179 198 216 233 184 253 221 195 173 156 212
202 219 224 249 285 323 342 348 346 349 354 91 59 243 199 273 274 188 191 261 212 240 213 196 257 222 182 256 266 232 237 296 156 137 124 163 256 189 245 254 241 246 248 217 193 216 214
212 222 237 276 293 308 323 343 347 345 11 81 158 135 14 269 285 164 182 238 220 231 160 224 213 210 193 212 207 258 224 195 243 151 171 148 271 309 286 271 229 264 245 230 230 244 255
216 216 219 247 269 291 305 316 351 355 29 58 321 331 110 271 241 136 219 216 225 185 233 184 196 172 208 235 233 242 218 230 227 194 203 175 183 350 265 330 315 291 229 193 206 208 192
219 226 225 220 243 257 268 308 314 30 76 133 228 97 93 269 192 211 248 205 228 224 246 211 163 159 233 106 331 296 249 244 229 236 198 181 161 174 270 335 302 244 218 225 222 256 220
234 243 228 227 228 239 245 262 291 200 131 101 208 108 145 247 226 282 258 244 284 263 248 234 217 207 137 63 15 332 327 319 194 59 197 190 148 248 249 232 288 295 186 158 165 290 166
228 241 249 253 256 243 241 241 240 237 175 112 183 133 125 138 243 261 256 209 240 234 297 238 68 139 76 110 122 213 224 238 261 187 52 90 66 162 148 229 259 247 178 142 130 287 223
241 240 243 243 274 289 281 273 272 266 206 165 196 168 116 220 271 210 224 213 191 216 227 298 164 156 87 149 183 197 234 203 215 197 179 150 164 208 220 258 282 249 179 154 133 235 186
80 74 70 66 62 53 29 354 322 299 280 155 227 184 159 226 256 213 241 232 242 197 192 203 41 286 80 179 180 220 197 222 202 197 179 174 168 197 144 199 277 160 86 172 206 190 199
57 53 50 48 43 29 11 8 7 0 354 347 247 189 203 231 246 212 228 239 236 236 222 246 233 203 202 132 225 143 234 227 205 239 122 233 197 195 189 208 216 206 195 249 184 167 199